Year,Month,Day,Hour,Minute,Value (Times are PST for temperature in C)
2021,03,29,00,00,-14.20
2021,03,29,00,01,-14.20
2021,03,29,00,02,-14.20
2021,03,29,00,03,-14.30
2021,03,29,00,04,-14.30
2021,03,29,00,05,-14.40
2021,03,29,00,06,-14.40
2021,03,29,00,07,-14.40
2021,03,29,00,08,-14.40
2021,03,29,00,09,-14.40
2021,03,29,00,10,-14.40
2021,03,29,00,11,-14.40
2021,03,29,00,12,-14.40
2021,03,29,00,13,-14.40
2021,03,29,00,14,-14.30
2021,03,29,00,15,-14.30
2021,03,29,00,16,-14.30
2021,03,29,00,17,-14.30
2021,03,29,00,18,-14.30
2021,03,29,00,19,-14.40
2021,03,29,00,20,-14.40
2021,03,29,00,21,-14.40
2021,03,29,00,22,-14.40
2021,03,29,00,23,-14.40
2021,03,29,00,24,-14.40
2021,03,29,00,25,-14.40
2021,03,29,00,26,-14.40
2021,03,29,00,27,-14.40
2021,03,29,00,28,-14.40
2021,03,29,00,29,-14.40
2021,03,29,00,30,-14.40
2021,03,29,00,31,-14.40
2021,03,29,00,32,-14.30
2021,03,29,00,33,-14.30
2021,03,29,00,34,-14.30
2021,03,29,00,35,-14.30
2021,03,29,00,36,-14.30
2021,03,29,00,37,-14.30
2021,03,29,00,38,-14.30
2021,03,29,00,39,-14.30
2021,03,29,00,40,-14.30
2021,03,29,00,41,-14.30
2021,03,29,00,42,-14.30
2021,03,29,00,43,-14.20
2021,03,29,00,44,-14.20
2021,03,29,00,45,-14.20
2021,03,29,00,46,-14.20
2021,03,29,00,47,-14.20
2021,03,29,00,48,-14.20
2021,03,29,00,49,-14.20
2021,03,29,00,50,-14.20
2021,03,29,00,51,-14.20
2021,03,29,00,52,-14.20
2021,03,29,00,53,-14.20
2021,03,29,00,54,-14.20
2021,03,29,00,55,-14.20
2021,03,29,00,56,-14.20
2021,03,29,00,57,-14.20
2021,03,29,00,58,-14.20
2021,03,29,00,59,-14.20
2021,03,29,01,00,-14.20
2021,03,29,01,01,-14.20
2021,03,29,01,02,-14.20
2021,03,29,01,03,-14.20
2021,03,29,01,04,-14.20
2021,03,29,01,05,-14.20
2021,03,29,01,06,-14.20
2021,03,29,01,07,-14.20
2021,03,29,01,08,-14.20
2021,03,29,01,09,-14.20
2021,03,29,01,10,-14.20
2021,03,29,01,11,-14.20
2021,03,29,01,12,-14.20
2021,03,29,01,13,-14.20
2021,03,29,01,14,-14.20
2021,03,29,01,15,-14.20
2021,03,29,01,16,-14.20
2021,03,29,01,17,-14.20
2021,03,29,01,18,-14.20
2021,03,29,01,19,-14.30
2021,03,29,01,20,-14.30
2021,03,29,01,21,-14.30
2021,03,29,01,22,-14.30
2021,03,29,01,23,-14.30
2021,03,29,01,24,-14.40
2021,03,29,01,25,-14.40
2021,03,29,01,26,-14.40
2021,03,29,01,27,-14.40
2021,03,29,01,28,-14.40
2021,03,29,01,29,-14.40
2021,03,29,01,30,-14.50
2021,03,29,01,31,-14.50
2021,03,29,01,32,-14.50
2021,03,29,01,33,-14.50
2021,03,29,01,34,-14.50
2021,03,29,01,35,-14.50
2021,03,29,01,36,-14.50
2021,03,29,01,37,-14.50
2021,03,29,01,38,-14.50
2021,03,29,01,39,-14.50
2021,03,29,01,40,-14.60
2021,03,29,01,41,-14.60
2021,03,29,01,42,-14.60
2021,03,29,01,43,-14.60
2021,03,29,01,44,-14.60
2021,03,29,01,45,-14.60
2021,03,29,01,46,-14.70
2021,03,29,01,47,-14.70
2021,03,29,01,48,-14.70
2021,03,29,01,49,-14.70
2021,03,29,01,50,-14.70
2021,03,29,01,51,-14.80
2021,03,29,01,52,-14.80
2021,03,29,01,53,-14.80
2021,03,29,01,54,-14.80
2021,03,29,01,55,-14.80
2021,03,29,01,56,-14.90
2021,03,29,01,57,-14.90
2021,03,29,01,58,-14.90
2021,03,29,01,59,-15.00
2021,03,29,02,00,-15.00
2021,03,29,02,01,-15.00
2021,03,29,02,02,-15.00
2021,03,29,02,03,-15.00
2021,03,29,02,04,-15.00
2021,03,29,02,05,-15.00
2021,03,29,02,06,-15.00
2021,03,29,02,07,-15.00
2021,03,29,02,08,-15.00
2021,03,29,02,09,-15.10
2021,03,29,02,10,-15.10
2021,03,29,02,11,-15.10
2021,03,29,02,12,-15.20
2021,03,29,02,13,-15.20
2021,03,29,02,14,-15.20
2021,03,29,02,15,-15.20
2021,03,29,02,16,-15.20
2021,03,29,02,17,-15.20
2021,03,29,02,18,-15.20
2021,03,29,02,19,-15.20
2021,03,29,02,20,-15.20
2021,03,29,02,21,-15.30
2021,03,29,02,22,-15.30
2021,03,29,02,23,-15.30
2021,03,29,02,24,-15.30
2021,03,29,02,25,-15.30
2021,03,29,02,26,-15.30
2021,03,29,02,27,-15.30
2021,03,29,02,28,-15.30
2021,03,29,02,29,-15.30
2021,03,29,02,30,-15.30
2021,03,29,02,31,-15.30
2021,03,29,02,32,-15.40
2021,03,29,02,33,-15.40
2021,03,29,02,34,-15.50
2021,03,29,02,35,-15.50
2021,03,29,02,36,-15.50
2021,03,29,02,37,-15.60
2021,03,29,02,38,-15.60
2021,03,29,02,39,-15.60
2021,03,29,02,40,-15.70
2021,03,29,02,41,-15.70
2021,03,29,02,42,-15.70
2021,03,29,02,43,-15.70
2021,03,29,02,44,-15.70
2021,03,29,02,45,-15.70
2021,03,29,02,46,-15.70
2021,03,29,02,47,-15.70
2021,03,29,02,48,-15.70
2021,03,29,02,49,-15.70
2021,03,29,02,50,-15.70
2021,03,29,02,51,-15.70
2021,03,29,02,52,-15.70
2021,03,29,02,53,-15.70
2021,03,29,02,54,-15.70
2021,03,29,02,55,-15.70
2021,03,29,02,56,-15.70
2021,03,29,02,57,-15.70
2021,03,29,02,58,-15.70
2021,03,29,02,59,-15.70
2021,03,29,03,00,-15.70
2021,03,29,03,01,-15.70
2021,03,29,03,02,-15.70
2021,03,29,03,03,-15.70
2021,03,29,03,04,-15.70
2021,03,29,03,05,-15.70
2021,03,29,03,06,-15.70
2021,03,29,03,07,-15.70
2021,03,29,03,08,-15.70
2021,03,29,03,09,-15.70
2021,03,29,03,10,-15.70
2021,03,29,03,11,-15.70
2021,03,29,03,12,-15.70
2021,03,29,03,13,-15.70
2021,03,29,03,14,-15.70
2021,03,29,03,15,-15.70
2021,03,29,03,16,-15.70
2021,03,29,03,17,-15.70
2021,03,29,03,18,-15.70
2021,03,29,03,19,-15.80
2021,03,29,03,20,-15.80
2021,03,29,03,21,-15.80
2021,03,29,03,22,-15.80
2021,03,29,03,23,-15.80
2021,03,29,03,24,-15.80
2021,03,29,03,25,-15.80
2021,03,29,03,26,-15.80
2021,03,29,03,27,-15.80
2021,03,29,03,28,-15.80
2021,03,29,03,29,-15.80
2021,03,29,03,30,-15.80
2021,03,29,03,31,-15.80
2021,03,29,03,32,-15.80
2021,03,29,03,33,-15.80
2021,03,29,03,34,-15.90
2021,03,29,03,35,-15.90
2021,03,29,03,36,-15.90
2021,03,29,03,37,-15.90
2021,03,29,03,38,-15.90
2021,03,29,03,39,-15.90
2021,03,29,03,40,-16.00
2021,03,29,03,41,-16.00
2021,03,29,03,42,-16.00
2021,03,29,03,43,-16.00
2021,03,29,03,44,-16.00
2021,03,29,03,45,-16.00
2021,03,29,03,46,-16.00
2021,03,29,03,47,-16.00
2021,03,29,03,48,-16.10
2021,03,29,03,49,-16.10
2021,03,29,03,50,-16.10
2021,03,29,03,51,-16.10
2021,03,29,03,52,-16.10
2021,03,29,03,53,-16.10
2021,03,29,03,54,-16.10
2021,03,29,03,55,-16.10
2021,03,29,03,56,-16.10
2021,03,29,03,57,-16.10
2021,03,29,03,58,-16.10
2021,03,29,03,59,-16.10
2021,03,29,04,00,-16.10
2021,03,29,04,01,-16.10
2021,03,29,04,02,-16.10
2021,03,29,04,03,-16.10
2021,03,29,04,04,-16.10
2021,03,29,04,05,-16.10
2021,03,29,04,06,-16.10
2021,03,29,04,07,-16.10
2021,03,29,04,08,-16.20
2021,03,29,04,09,-16.10
2021,03,29,04,10,-16.10
2021,03,29,04,11,-16.10
2021,03,29,04,12,-16.10
2021,03,29,04,13,-16.10
2021,03,29,04,14,-16.10
2021,03,29,04,15,-16.10
2021,03,29,04,16,-16.10
2021,03,29,04,17,-16.10
2021,03,29,04,18,-16.00
2021,03,29,04,19,-16.00
2021,03,29,04,20,-16.00
2021,03,29,04,21,-16.00
2021,03,29,04,22,-16.00
2021,03,29,04,23,-16.00
2021,03,29,04,24,-15.90
2021,03,29,04,25,-15.90
2021,03,29,04,26,-15.90
2021,03,29,04,27,-15.90
2021,03,29,04,28,-15.90
2021,03,29,04,29,-15.90
2021,03,29,04,30,-15.90
2021,03,29,04,31,-15.90
2021,03,29,04,32,-15.90
2021,03,29,04,33,-15.80
2021,03,29,04,34,-15.80
2021,03,29,04,35,-15.80
2021,03,29,04,36,-15.80
2021,03,29,04,37,-15.80
2021,03,29,04,38,-15.80
2021,03,29,04,39,-15.70
2021,03,29,04,40,-15.70
2021,03,29,04,41,-15.70
2021,03,29,04,42,-15.70
2021,03,29,04,43,-15.70
2021,03,29,04,44,-15.70
2021,03,29,04,45,-15.60
2021,03,29,04,46,-15.60
2021,03,29,04,47,-15.60
2021,03,29,04,48,-15.60
2021,03,29,04,49,-15.60
2021,03,29,04,50,-15.60
2021,03,29,04,51,-15.60
2021,03,29,04,52,-15.60
2021,03,29,04,53,-15.60
2021,03,29,04,54,-15.60
2021,03,29,04,55,-15.60
2021,03,29,04,56,-15.60
2021,03,29,04,57,-15.50
2021,03,29,04,58,-15.50
2021,03,29,04,59,-15.50
2021,03,29,05,00,-15.50
2021,03,29,05,01,-15.50
2021,03,29,05,02,-15.50
2021,03,29,05,03,-15.50
2021,03,29,05,04,-15.50
2021,03,29,05,05,-15.50
2021,03,29,05,06,-15.50
2021,03,29,05,07,-15.50
2021,03,29,05,08,-15.50
2021,03,29,05,09,-15.50
2021,03,29,05,10,-15.50
2021,03,29,05,11,-15.50
2021,03,29,05,12,-15.50
2021,03,29,05,13,-15.50
2021,03,29,05,14,-15.50
2021,03,29,05,15,-15.50
2021,03,29,05,16,-15.50
2021,03,29,05,17,-15.50
2021,03,29,05,18,-15.50
2021,03,29,05,19,-15.50
2021,03,29,05,20,-15.50
2021,03,29,05,21,-15.50
2021,03,29,05,22,-15.50
2021,03,29,05,23,-15.50
2021,03,29,05,24,-15.50
2021,03,29,05,25,-15.50
2021,03,29,05,26,-15.50
2021,03,29,05,27,-15.50
2021,03,29,05,28,-15.50
2021,03,29,05,29,-15.50
2021,03,29,05,30,-15.40
2021,03,29,05,31,-15.40
2021,03,29,05,32,-15.40
2021,03,29,05,33,-15.40
2021,03,29,05,34,-15.40
2021,03,29,05,35,-15.40
2021,03,29,05,36,-15.40
2021,03,29,05,37,-15.40
2021,03,29,05,38,-15.40
2021,03,29,05,39,-15.40
2021,03,29,05,40,-15.40
2021,03,29,05,41,-15.30
2021,03,29,05,42,-15.30
2021,03,29,05,43,-15.30
2021,03,29,05,44,-15.30
2021,03,29,05,45,-15.30
2021,03,29,05,46,-15.30
2021,03,29,05,47,-15.30
2021,03,29,05,48,-15.30
2021,03,29,05,49,-15.30
2021,03,29,05,50,-15.40
2021,03,29,05,51,-15.50
2021,03,29,05,52,-15.50
2021,03,29,05,53,-15.60
2021,03,29,05,54,-15.60
2021,03,29,05,55,-15.70
2021,03,29,05,56,-15.70
2021,03,29,05,57,-15.70
2021,03,29,05,58,-15.80
2021,03,29,05,59,-15.80
2021,03,29,06,00,-15.80
2021,03,29,06,01,-15.80
2021,03,29,06,02,-15.80
2021,03,29,06,03,-15.80
2021,03,29,06,04,-15.80
2021,03,29,06,05,-15.80
2021,03,29,06,06,-15.80
2021,03,29,06,07,-15.80
2021,03,29,06,08,-15.80
2021,03,29,06,09,-15.80
2021,03,29,06,10,-15.80
2021,03,29,06,11,-15.70
2021,03,29,06,12,-15.70
2021,03,29,06,13,-15.70
2021,03,29,06,14,-15.70
2021,03,29,06,15,-15.70
2021,03,29,06,16,-15.60
2021,03,29,06,17,-15.60
2021,03,29,06,18,-15.50
2021,03,29,06,19,-15.50
2021,03,29,06,20,-15.50
2021,03,29,06,21,-15.40
2021,03,29,06,22,-15.40
2021,03,29,06,23,-15.40
2021,03,29,06,24,-15.40
2021,03,29,06,25,-15.40
2021,03,29,06,26,-15.30
2021,03,29,06,27,-15.30
2021,03,29,06,28,-15.30
2021,03,29,06,29,-15.30
2021,03,29,06,30,-15.30
2021,03,29,06,31,-15.20
2021,03,29,06,32,-15.20
2021,03,29,06,33,-15.20
2021,03,29,06,34,-15.20
2021,03,29,06,35,-15.20
2021,03,29,06,36,-15.10
2021,03,29,06,37,-15.10
2021,03,29,06,38,-15.10
2021,03,29,06,39,-15.00
2021,03,29,06,40,-15.00
2021,03,29,06,41,-15.00
2021,03,29,06,42,-14.90
2021,03,29,06,43,-14.90
2021,03,29,06,44,-14.90
2021,03,29,06,45,-14.90
2021,03,29,06,46,-14.90
2021,03,29,06,47,-14.80
2021,03,29,06,48,-14.80
2021,03,29,06,49,-14.80
2021,03,29,06,50,-14.80
2021,03,29,06,51,-14.80
2021,03,29,06,52,-14.80
2021,03,29,06,53,-14.80
2021,03,29,06,54,-14.80
2021,03,29,06,55,-14.80
2021,03,29,06,56,-14.80
2021,03,29,06,57,-14.80
2021,03,29,06,58,-14.80
2021,03,29,06,59,-14.80
2021,03,29,07,00,-14.80
2021,03,29,07,01,-14.80
2021,03,29,07,02,-14.80
2021,03,29,07,03,-14.80
2021,03,29,07,04,-14.80
2021,03,29,07,05,-14.70
2021,03,29,07,06,-14.70
2021,03,29,07,07,-14.70
2021,03,29,07,08,-14.70
2021,03,29,07,09,-14.70
2021,03,29,07,10,-14.70
2021,03,29,07,11,-14.70
2021,03,29,07,12,-14.70
2021,03,29,07,13,-14.70
2021,03,29,07,14,-14.70
2021,03,29,07,15,-14.70
2021,03,29,07,16,-14.60
2021,03,29,07,17,-14.60
2021,03,29,07,18,-14.60
2021,03,29,07,19,-14.60
2021,03,29,07,20,-14.60
2021,03,29,07,21,-14.60
2021,03,29,07,22,-14.60
2021,03,29,07,23,-14.60
2021,03,29,07,24,-14.60
2021,03,29,07,25,-14.60
2021,03,29,07,26,-14.60
2021,03,29,07,27,-14.50
2021,03,29,07,28,-14.50
2021,03,29,07,29,-14.50
2021,03,29,07,30,-14.50
2021,03,29,07,31,-14.50
2021,03,29,07,32,-14.50
2021,03,29,07,33,-14.50
2021,03,29,07,34,-14.50
2021,03,29,07,35,-14.50
2021,03,29,07,36,-14.50
2021,03,29,07,37,-14.50
2021,03,29,07,38,-14.50
2021,03,29,07,39,-14.50
2021,03,29,07,40,-14.50
2021,03,29,07,41,-14.50
2021,03,29,07,42,-14.40
2021,03,29,07,43,-14.40
2021,03,29,07,44,-14.40
2021,03,29,07,45,-14.40
2021,03,29,07,46,-14.40
2021,03,29,07,47,-14.40
2021,03,29,07,48,-14.40
2021,03,29,07,49,-14.40
2021,03,29,07,50,-14.40
2021,03,29,07,51,-14.40
2021,03,29,07,52,-14.40
2021,03,29,07,53,-14.40
2021,03,29,07,54,-14.40
2021,03,29,07,55,-14.30
2021,03,29,07,56,-14.30
2021,03,29,07,57,-14.30
2021,03,29,07,58,-14.30
2021,03,29,07,59,-14.30
2021,03,29,08,00,-14.30
2021,03,29,08,01,-14.30
2021,03,29,08,02,-14.30
2021,03,29,08,03,-14.30
2021,03,29,08,04,-14.30
2021,03,29,08,05,-14.30
2021,03,29,08,06,-14.30
2021,03,29,08,07,-14.30
2021,03,29,08,08,-14.30
2021,03,29,08,09,-14.30
2021,03,29,08,10,-14.30
2021,03,29,08,11,-14.20
2021,03,29,08,12,-14.20
2021,03,29,08,13,-14.20
2021,03,29,08,14,-14.20
2021,03,29,08,15,-14.20
2021,03,29,08,16,-14.20
2021,03,29,08,17,-14.20
2021,03,29,08,18,-14.20
2021,03,29,08,19,-14.20
2021,03,29,08,20,-14.20
2021,03,29,08,21,-14.20
2021,03,29,08,22,-14.20
2021,03,29,08,23,-14.20
2021,03,29,08,24,-14.20
2021,03,29,08,25,-14.20
2021,03,29,08,26,-14.20
2021,03,29,08,27,-14.20
2021,03,29,08,28,-14.20
2021,03,29,08,29,-14.20
2021,03,29,08,30,-14.20
2021,03,29,08,31,-14.20
2021,03,29,08,32,-14.20
2021,03,29,08,33,-14.20
2021,03,29,08,34,-14.10
2021,03,29,08,35,-14.10
2021,03,29,08,36,-14.10
2021,03,29,08,37,-14.10
2021,03,29,08,38,-14.10
2021,03,29,08,39,-14.10
2021,03,29,08,40,-14.10
2021,03,29,08,41,-14.10
2021,03,29,08,42,-14.10
2021,03,29,08,43,-14.10
2021,03,29,08,44,-14.10
2021,03,29,08,45,-14.00
2021,03,29,08,46,-14.00
2021,03,29,08,47,-14.00
2021,03,29,08,48,-14.00
2021,03,29,08,49,-14.00
2021,03,29,08,50,-14.00
2021,03,29,08,51,-14.00
2021,03,29,08,52,-14.00
2021,03,29,08,53,-14.00
2021,03,29,08,54,-14.00
2021,03,29,08,55,-14.00
2021,03,29,08,56,-14.00
2021,03,29,08,57,-14.00
2021,03,29,08,58,-14.00
2021,03,29,08,59,-14.00
2021,03,29,09,00,-14.00
2021,03,29,09,01,-14.00
2021,03,29,09,02,-14.10
2021,03,29,09,03,-14.10
2021,03,29,09,04,-14.10
2021,03,29,09,05,-14.10
2021,03,29,09,06,-14.10
2021,03,29,09,07,-14.10
2021,03,29,09,08,-14.10
2021,03,29,09,09,-14.10
2021,03,29,09,10,-14.10
2021,03,29,09,11,-14.10
2021,03,29,09,12,-14.10
2021,03,29,09,13,-14.10
2021,03,29,09,14,-14.10
2021,03,29,09,15,-14.10
2021,03,29,09,16,-14.00
2021,03,29,09,17,-14.00
2021,03,29,09,18,-14.00
2021,03,29,09,19,-14.00
2021,03,29,09,20,-14.00
2021,03,29,09,21,-14.00
2021,03,29,09,22,-14.00
2021,03,29,09,23,-14.00
2021,03,29,09,24,-14.00
2021,03,29,09,25,-13.90
2021,03,29,09,26,-13.90
2021,03,29,09,27,-13.90
2021,03,29,09,28,-13.90
2021,03,29,09,29,-13.90
2021,03,29,09,30,-13.80
2021,03,29,09,31,-13.80
2021,03,29,09,32,-13.80
2021,03,29,09,33,-13.70
2021,03,29,09,34,-13.70
2021,03,29,09,35,-13.70
2021,03,29,09,36,-13.70
2021,03,29,09,37,-13.70
2021,03,29,09,38,-13.70
2021,03,29,09,39,-13.60
2021,03,29,09,40,-13.60
2021,03,29,09,41,-13.60
2021,03,29,09,42,-13.60
2021,03,29,09,43,-13.50
2021,03,29,09,44,-13.50
2021,03,29,09,45,-13.50
2021,03,29,09,46,-13.40
2021,03,29,09,47,-13.40
2021,03,29,09,48,-13.40
2021,03,29,09,49,-13.40
2021,03,29,09,50,-13.40
2021,03,29,09,51,-13.30
2021,03,29,09,52,-13.30
2021,03,29,09,53,-13.30
2021,03,29,09,54,-13.30
2021,03,29,09,55,-13.30
2021,03,29,09,56,-13.30
2021,03,29,09,57,-13.30
2021,03,29,09,58,-13.30
2021,03,29,09,59,-13.30
2021,03,29,10,00,-13.30
2021,03,29,10,01,-13.30
2021,03,29,10,02,-13.20
2021,03,29,10,03,-13.20
2021,03,29,10,04,-13.20
2021,03,29,10,05,-13.10
2021,03,29,10,06,-13.10
2021,03,29,10,07,-13.10
2021,03,29,10,08,-13.10
2021,03,29,10,09,-13.00
2021,03,29,10,10,-13.00
2021,03,29,10,11,-12.90
2021,03,29,10,12,-12.90
2021,03,29,10,13,-12.90
2021,03,29,10,14,-12.90
2021,03,29,10,15,-12.90
2021,03,29,10,16,-12.80
2021,03,29,10,17,-12.80
2021,03,29,10,18,-12.80
2021,03,29,10,19,-12.80
2021,03,29,10,20,-12.80
2021,03,29,10,21,-12.70
2021,03,29,10,22,-12.70
2021,03,29,10,23,-12.60
2021,03,29,10,24,-12.60
2021,03,29,10,25,-12.60
2021,03,29,10,26,-12.60
2021,03,29,10,27,-12.50
2021,03,29,10,28,-12.50
2021,03,29,10,29,-12.40
2021,03,29,10,30,-12.40
2021,03,29,10,31,-12.30
2021,03,29,10,32,-12.30
2021,03,29,10,33,-12.20
2021,03,29,10,34,-12.20
2021,03,29,10,35,-12.20
2021,03,29,10,36,-12.10
2021,03,29,10,37,-12.10
2021,03,29,10,38,-12.10
2021,03,29,10,39,-12.00
2021,03,29,10,40,-12.00
2021,03,29,10,41,-11.90
2021,03,29,10,42,-11.90
2021,03,29,10,43,-11.90
2021,03,29,10,44,-11.80
2021,03,29,10,45,-11.80
2021,03,29,10,46,-11.80
2021,03,29,10,47,-11.70
2021,03,29,10,48,-11.70
2021,03,29,10,49,-11.60
2021,03,29,10,50,-11.60
2021,03,29,10,51,-11.50
2021,03,29,10,52,-11.50
2021,03,29,10,53,-11.40
2021,03,29,10,54,-11.40
2021,03,29,10,55,-11.30
2021,03,29,10,56,-11.30
2021,03,29,10,57,-11.30
2021,03,29,10,58,-11.20
2021,03,29,10,59,-11.20
2021,03,29,11,00,-11.10
2021,03,29,11,01,-11.10
2021,03,29,11,02,-11.10
2021,03,29,11,03,-11.10
2021,03,29,11,04,-11.10
2021,03,29,11,05,-11.00
2021,03,29,11,06,-11.00
2021,03,29,11,07,-11.00
2021,03,29,11,08,-10.90
2021,03,29,11,09,-10.90
2021,03,29,11,10,-10.90
2021,03,29,11,11,-10.90
2021,03,29,11,12,-10.80
2021,03,29,11,13,-10.80
2021,03,29,11,14,-10.80
2021,03,29,11,15,-10.80
2021,03,29,11,16,-10.80
2021,03,29,11,17,-10.70
2021,03,29,11,18,-10.70
2021,03,29,11,19,-10.70
2021,03,29,11,20,-10.70
2021,03,29,11,21,-10.70
2021,03,29,11,22,-10.70
2021,03,29,11,23,-10.60
2021,03,29,11,24,-10.60
2021,03,29,11,25,-10.60
2021,03,29,11,26,-10.60
2021,03,29,11,27,-10.60
2021,03,29,11,28,-10.50
2021,03,29,11,29,-10.50
2021,03,29,11,30,-10.50
2021,03,29,11,31,-10.40
2021,03,29,11,32,-10.40
2021,03,29,11,33,-10.40
2021,03,29,11,34,-10.40
2021,03,29,11,35,-10.40
2021,03,29,11,36,-10.40
2021,03,29,11,37,-10.40
2021,03,29,11,38,-10.30
2021,03,29,11,39,-10.30
2021,03,29,11,40,-10.30
2021,03,29,11,41,-10.30
2021,03,29,11,42,-10.30
2021,03,29,11,43,-10.20
2021,03,29,11,44,-10.20
2021,03,29,11,45,-10.20
2021,03,29,11,46,-10.20
2021,03,29,11,47,-10.20
2021,03,29,11,48,-10.20
2021,03,29,11,49,-10.20
2021,03,29,11,50,-10.20
2021,03,29,11,51,-10.20
2021,03,29,11,52,-10.20
2021,03,29,11,53,-10.20
2021,03,29,11,54,-10.20
2021,03,29,11,55,-10.20
2021,03,29,11,56,-10.20
2021,03,29,11,57,-10.20
2021,03,29,11,58,-10.20
2021,03,29,11,59,-10.20
2021,03,29,12,00,-10.20
2021,03,29,12,01,-10.20
2021,03,29,12,02,-10.20
2021,03,29,12,03,-10.20
2021,03,29,12,04,-10.20
2021,03,29,12,05,-10.20
2021,03,29,12,06,-10.20
2021,03,29,12,07,-10.20
2021,03,29,12,08,-10.20
2021,03,29,12,09,-10.10
2021,03,29,12,10,-10.10
2021,03,29,12,11,-10.10
2021,03,29,12,12,-10.10
2021,03,29,12,13,-10.10
2021,03,29,12,14,-10.10
2021,03,29,12,15,-10.10
2021,03,29,12,16,-10.10
2021,03,29,12,17,-10.10
2021,03,29,12,18,-10.10
2021,03,29,12,19,-10.00
2021,03,29,12,20,-10.00
2021,03,29,12,21,-10.00
2021,03,29,12,22,-9.90
2021,03,29,12,23,-9.90
2021,03,29,12,24,-9.90
2021,03,29,12,25,-9.80
2021,03,29,12,26,-9.80
2021,03,29,12,27,-9.80
2021,03,29,12,28,-9.70
2021,03,29,12,29,-9.70
2021,03,29,12,30,-9.70
2021,03,29,12,31,-9.70
2021,03,29,12,32,-9.70
2021,03,29,12,33,-9.60
2021,03,29,12,34,-9.60
2021,03,29,12,35,-9.60
2021,03,29,12,36,-9.50
2021,03,29,12,37,-9.50
2021,03,29,12,38,-9.40
2021,03,29,12,39,-9.40
2021,03,29,12,40,-9.30
2021,03,29,12,41,-9.30
2021,03,29,12,42,-9.20
2021,03,29,12,43,-9.20
2021,03,29,12,44,-9.10
2021,03,29,12,45,-9.10
2021,03,29,12,46,-9.10
2021,03,29,12,47,-9.10
2021,03,29,12,48,-9.10
2021,03,29,12,49,-9.10
2021,03,29,12,50,-9.20
2021,03,29,12,51,-9.20
2021,03,29,12,52,-9.20
2021,03,29,12,53,-9.20
2021,03,29,12,54,-9.20
2021,03,29,12,55,-9.20
2021,03,29,12,56,-9.20
2021,03,29,12,57,-9.20
2021,03,29,12,58,-9.20
2021,03,29,12,59,-9.20
2021,03,29,13,00,-9.10
2021,03,29,13,01,-9.10
2021,03,29,13,02,-9.10
2021,03,29,13,03,-9.10
2021,03,29,13,04,-9.00
2021,03,29,13,05,-9.00
2021,03,29,13,06,-9.00
2021,03,29,13,07,-8.90
2021,03,29,13,08,-8.90
2021,03,29,13,09,-8.90
2021,03,29,13,10,-8.90
2021,03,29,13,11,-8.80
2021,03,29,13,12,-8.80
2021,03,29,13,13,-8.80
2021,03,29,13,14,-8.80
2021,03,29,13,15,-8.80
2021,03,29,13,16,-8.70
2021,03,29,13,17,-8.70
2021,03,29,13,18,-8.70
2021,03,29,13,19,-8.70
2021,03,29,13,20,-8.70
2021,03,29,13,21,-8.70
2021,03,29,13,22,-8.70
2021,03,29,13,23,-8.70
2021,03,29,13,24,-8.60
2021,03,29,13,25,-8.60
2021,03,29,13,26,-8.60
2021,03,29,13,27,-8.60
2021,03,29,13,28,-8.50
2021,03,29,13,29,-8.50
2021,03,29,13,30,-8.50
2021,03,29,13,31,-8.50
2021,03,29,13,32,-8.40
2021,03,29,13,33,-8.40
2021,03,29,13,34,-8.30
2021,03,29,13,35,-8.20
2021,03,29,13,36,-8.20
2021,03,29,13,37,-8.10
2021,03,29,13,38,-8.10
2021,03,29,13,39,-8.00
2021,03,29,13,40,-7.90
2021,03,29,13,41,-7.80
2021,03,29,13,42,-7.80
2021,03,29,13,43,-7.80
2021,03,29,13,44,-7.70
2021,03,29,13,45,-7.70
2021,03,29,13,46,-7.60
2021,03,29,13,47,-7.50
2021,03,29,13,48,-7.50
2021,03,29,13,49,-7.40
2021,03,29,13,50,-7.40
2021,03,29,13,51,-7.30
2021,03,29,13,52,-7.30
2021,03,29,13,53,-7.30
2021,03,29,13,54,-7.30
2021,03,29,13,55,-7.30
2021,03,29,13,56,-7.20
2021,03,29,13,57,-7.20
2021,03,29,13,58,-7.20
2021,03,29,13,59,-7.20
2021,03,29,14,00,-7.20
2021,03,29,14,01,-7.20
2021,03,29,14,02,-7.20
2021,03,29,14,03,-7.10
2021,03,29,14,04,-7.10
2021,03,29,14,05,-7.10
2021,03,29,14,06,-7.20
2021,03,29,14,07,-7.20
2021,03,29,14,08,-7.20
2021,03,29,14,09,-7.20
2021,03,29,14,10,-7.20
2021,03,29,14,11,-7.10
2021,03,29,14,12,-7.10
2021,03,29,14,13,-7.10
2021,03,29,14,14,-7.10
2021,03,29,14,15,-7.00
2021,03,29,14,16,-6.90
2021,03,29,14,17,-6.90
2021,03,29,14,18,-6.90
2021,03,29,14,19,-6.80
2021,03,29,14,20,-6.80
2021,03,29,14,21,-6.80
2021,03,29,14,22,-6.80
2021,03,29,14,23,-6.70
2021,03,29,14,24,-6.70
2021,03,29,14,25,-6.60
2021,03,29,14,26,-6.60
2021,03,29,14,27,-6.50
2021,03,29,14,28,-6.40
2021,03,29,14,29,-6.40
2021,03,29,14,30,-6.30
2021,03,29,14,31,-6.20
2021,03,29,14,32,-6.10
2021,03,29,14,33,-6.10
2021,03,29,14,34,-6.00
2021,03,29,14,35,-6.00
2021,03,29,14,36,-6.00
2021,03,29,14,37,-6.00
2021,03,29,14,38,-6.00
2021,03,29,14,39,-6.10
2021,03,29,14,40,-6.10
2021,03,29,14,41,-6.10
2021,03,29,14,42,-6.10
2021,03,29,14,43,-6.10
2021,03,29,14,44,-6.10
2021,03,29,14,45,-6.10
2021,03,29,14,46,-6.20
2021,03,29,14,47,-6.20
2021,03,29,14,48,-6.10
2021,03,29,14,49,-6.10
2021,03,29,14,50,-6.10
2021,03,29,14,51,-6.00
2021,03,29,14,52,-6.00
2021,03,29,14,53,-6.00
2021,03,29,14,54,-5.90
2021,03,29,14,55,-5.90
2021,03,29,14,56,-5.90
2021,03,29,14,57,-5.90
2021,03,29,14,58,-5.90
2021,03,29,14,59,-5.90
2021,03,29,15,00,-5.90
2021,03,29,15,01,-5.90
2021,03,29,15,02,-5.90
2021,03,29,15,03,-5.90
2021,03,29,15,04,-5.90
2021,03,29,15,05,-5.90
2021,03,29,15,06,-5.90
2021,03,29,15,07,-5.90
2021,03,29,15,08,-5.80
2021,03,29,15,09,-5.80
2021,03,29,15,10,-5.80
2021,03,29,15,11,-5.80
2021,03,29,15,12,-5.70
2021,03,29,15,13,-5.70
2021,03,29,15,14,-5.70
2021,03,29,15,15,-5.60
2021,03,29,15,16,-5.60
2021,03,29,15,17,-5.60
2021,03,29,15,18,-5.60
2021,03,29,15,19,-5.70
2021,03,29,15,20,-5.70
2021,03,29,15,21,-5.70
2021,03,29,15,22,-5.70
2021,03,29,15,23,-5.80
2021,03,29,15,24,-5.80
2021,03,29,15,25,-5.80
2021,03,29,15,26,-5.80
2021,03,29,15,27,-5.70
2021,03,29,15,28,-5.70
2021,03,29,15,29,-5.70
2021,03,29,15,30,-5.70
2021,03,29,15,31,-5.70
2021,03,29,15,32,-5.60
2021,03,29,15,33,-5.60
2021,03,29,15,34,-5.60
2021,03,29,15,35,-5.50
2021,03,29,15,36,-5.50
2021,03,29,15,37,-5.40
2021,03,29,15,38,-5.40
2021,03,29,15,39,-5.30
2021,03,29,15,40,-5.30
2021,03,29,15,41,-5.30
2021,03,29,15,42,-5.20
2021,03,29,15,43,-5.20
2021,03,29,15,44,-5.20
2021,03,29,15,45,-5.20
2021,03,29,15,46,-5.20
2021,03,29,15,47,-5.20
2021,03,29,15,48,-5.20
2021,03,29,15,49,-5.10
2021,03,29,15,50,-5.20
2021,03,29,15,51,-5.10
2021,03,29,15,52,-5.10
2021,03,29,15,53,-5.10
2021,03,29,15,54,-5.10
2021,03,29,15,55,-5.10
2021,03,29,15,56,-5.10
2021,03,29,15,57,-5.10
2021,03,29,15,58,-5.00
2021,03,29,15,59,-5.00
2021,03,29,16,00,-5.00
2021,03,29,16,01,-5.00
2021,03,29,16,02,-4.90
2021,03,29,16,03,-4.90
2021,03,29,16,04,-4.80
2021,03,29,16,05,-4.80
2021,03,29,16,06,-4.80
2021,03,29,16,07,-4.70
2021,03,29,16,08,-4.70
2021,03,29,16,09,-4.60
2021,03,29,16,10,-4.60
2021,03,29,16,11,-4.50
2021,03,29,16,12,-4.40
2021,03,29,16,13,-4.40
2021,03,29,16,14,-4.30
2021,03,29,16,15,-4.30
2021,03,29,16,16,-4.20
2021,03,29,16,17,-4.10
2021,03,29,16,18,-4.00
2021,03,29,16,19,-4.00
2021,03,29,16,20,-3.90
2021,03,29,16,21,-3.80
2021,03,29,16,22,-3.70
2021,03,29,16,23,-3.70
2021,03,29,16,24,-3.60
2021,03,29,16,25,-3.60
2021,03,29,16,26,-3.50
2021,03,29,16,27,-3.50
2021,03,29,16,28,-3.40
2021,03,29,16,29,-3.40
2021,03,29,16,30,-3.40
2021,03,29,16,31,-3.30
2021,03,29,16,32,-3.30
2021,03,29,16,33,-3.30
2021,03,29,16,34,-3.20
2021,03,29,16,35,-3.20
2021,03,29,16,36,-3.20
2021,03,29,16,37,-3.20
2021,03,29,16,38,-3.20
2021,03,29,16,39,-3.20
2021,03,29,16,40,-3.30
2021,03,29,16,41,-3.30
2021,03,29,16,42,-3.30
2021,03,29,16,43,-3.40
2021,03,29,16,44,-3.40
2021,03,29,16,45,-3.40
2021,03,29,16,46,-3.40
2021,03,29,16,47,-3.40